Location: Cantaing
(50.1487°N, 3.1675°E)
Time: 10:01:34
(UTC+00:00)

Helios 1A Rocket - Pass Details

Date: 14 January 2026
Orbit: 426 x 436 km, 98.3° (Epoch: 11 February)

Event Time Altitude Azimuth Distance (km) Brightness Sun altitude
Rises 04:56:32 0° 143° (SE) 2,447 6.7 -25.6°
Reaches altitude 10° 04:58:39 10° 135° (SE) 1,581 5.8 -25.3°
Maximum altitude 05:01:45 34° 68° (ENE) 758 4.0 -24.8°
Enters shadow 05:02:15 33° 48° (NE) 791 3.9 -24.7°
